Theta_e
328 327 327 326 325 325 324 323 323 322 322 322 322 323 323 323 323 322 321 321 321 319 319 318 317 317 317 316 317 317 317 316 315 315 316 315 315 316 315 315 315 316 316 316 317 317 318 318 318 317 316 317 316 315 317 316 314 313 309 311 313 313 314 316 314 312 316 314 309 313 313 314 318 317 317 317 316 316 315 315 315 314 314 315 315
327 325 326 326 325 325 324 324 323 322 322 322 322 322 323 322 321 321 320 320 319 318 317 317 317 318 316 314 314 316 316 316 316 316 316 316 316 316 316 316 315 316 316 316 317 317 317 318 318 318 315 317 316 315 315 316 315 309 307 311 311 310 314 316 313 313 315 314 311 313 312 311 317 315 313 314 315 315 314 314 313 313 313 313 313
326 325 325 325 324 324 323 323 323 321 321 321 321 321 322 321 320 320 319 319 319 318 317 317 317 318 317 315 315 315 315 315 315 316 316 315 315 315 315 315 316 316 316 317 317 317 317 317 317 318 317 316 316 315 313 313 314 307 304 312 311 307 312 314 313 313 315 313 309 311 313 312 314 311 308 311 314 313 312 312 311 311 311 310 311
326 326 325 325 324 323 322 322 322 321 321 320 320 320 320 319 319 319 318 318 318 317 317 317 317 317 317 317 316 315 315 315 315 315 316 315 315 315 315 316 316 315 316 317 317 317 317 316 316 317 317 316 316 316 313 310 312 306 301 310 312 307 307 310 312 311 313 312 307 309 312 312 311 309 307 308 310 310 309 309 308 308 307 307 308
327 326 326 326 325 324 322 322 322 321 320 320 320 319 319 319 318 318 318 319 318 318 318 318 318 317 317 317 316 316 316 316 315 315 315 315 316 316 316 316 316 317 317 317 316 317 318 316 314 316 317 317 316 316 313 310 311 308 300 303 310 310 306 306 308 306 309 311 306 307 309 309 309 307 306 306 306 306 306 306 306 306 306 305 305
327 326 326 326 325 324 322 321 322 321 320 320 319 319 318 318 319 318 319 319 319 319 318 318 318 318 319 318 317 316 316 316 316 316 316 315 315 316 316 317 317 317 317 317 315 316 318 317 314 314 316 317 316 315 313 310 310 309 303 299 303 305 303 302 301 299 304 306 303 304 306 306 306 304 304 305 304 303 303 304 304 304 303 303 304
328 327 326 326 325 324 322 321 320 320 320 319 319 319 318 319 319 319 319 319 319 319 318 318 318 317 317 317 317 316 315 316 316 315 316 316 316 316 317 317 316 315 316 317 316 314 316 317 315 314 315 316 316 313 310 309 310 308 304 298 297 298 297 297 296 295 299 299 297 301 305 305 304 303 304 304 303 302 302 303 304 303 302 303 304
328 327 326 326 325 324 322 320 320 320 319 319 319 319 318 319 319 319 319 319 319 318 318 318 317 316 316 316 316 315 315 316 316 316 316 316 316 317 317 317 315 314 315 317 316 313 315 316 315 315 314 314 314 311 307 307 309 307 301 297 295 295 295 295 294 294 296 297 296 300 304 305 302 303 304 303 303 303 303 303 303 302 303 304 303
328 327 327 327 325 324 322 320 320 320 319 319 319 319 319 319 319 319 319 319 319 318 318 318 317 316 316 316 316 316 316 316 316 316 316 317 317 317 318 317 316 314 314 315 315 314 315 315 315 314 314 314 312 309 304 304 309 307 299 296 295 294 295 294 294 294 295 296 297 301 305 304 300 302 303 302 303 304 303 303 302 302 303 303 302
328 328 327 327 326 324 322 320 321 320 319 319 319 320 320 320 320 320 319 319 319 318 318 318 317 317 317 316 316 316 317 316 317 317 317 317 317 317 317 317 317 315 314 315 315 315 315 315 316 314 314 313 310 307 301 301 308 306 297 295 295 294 295 294 293 294 294 294 297 302 306 304 300 301 303 302 303 304 303 303 303 303 303 302 301
329 329 328 327 326 324 322 321 321 320 319 319 319 320 320 321 320 320 319 319 319 319 319 318 318 318 317 317 316 316 317 317 317 317 317 317 318 317 317 317 318 315 314 316 316 315 315 315 316 314 314 313 307 304 300 297 303 302 295 294 294 294 295 295 293 293 293 293 297 302 305 304 300 300 302 303 303 303 303 303 303 303 303 301 302
329 329 329 327 326 325 322 321 321 320 320 320 320 320 321 321 321 321 320 320 319 319 319 319 318 318 317 318 317 317 317 317 317 317 317 317 317 317 317 318 318 315 316 317 316 315 315 316 316 314 313 311 305 301 298 295 298 298 294 294 294 293 294 296 295 295 295 294 297 302 305 304 298 299 302 302 302 302 302 303 303 302 301 301 301
330 330 329 328 326 325 323 322 322 320 320 321 320 321 321 321 321 321 321 321 320 319 319 318 318 318 318 318 318 317 317 317 316 317 316 317 317 317 318 318 317 316 317 317 316 315 315 316 315 314 312 308 302 299 296 295 296 296 294 294 296 294 293 296 296 296 297 297 297 299 303 303 297 297 301 300 300 301 301 301 301 301 301 300 301
330 330 330 328 326 325 324 323 322 321 321 321 321 321 321 322 322 322 322 322 321 321 320 319 319 318 318 318 318 318 318 317 317 317 317 318 317 317 318 317 316 317 318 317 316 316 316 316 315 313 310 305 300 297 296 295 294 294 294 296 299 297 295 295 294 296 297 298 299 298 300 302 296 297 302 299 300 301 300 300 300 300 300 300 300
329 330 330 329 327 325 325 323 322 322 321 321 321 321 322 322 322 323 323 322 322 322 321 321 320 319 319 319 319 318 318 318 318 318 318 318 318 318 319 317 317 318 318 317 316 315 315 315 314 312 308 303 298 296 295 294 294 294 293 294 297 299 299 296 293 295 296 297 300 298 298 299 295 297 302 299 299 301 300 300 299 299 300 299 299
329 330 330 330 328 326 325 324 323 322 322 322 322 322 322 322 323 323 323 323 323 322 322 322 321 320 320 320 320 320 319 318 318 318 317 317 317 318 318 318 319 319 318 317 317 316 315 315 314 311 306 301 297 295 294 294 294 294 293 293 295 296 299 298 295 296 295 296 300 299 298 297 294 297 300 298 299 300 298 299 298 298 299 298 299
330 330 331 330 329 327 326 325 323 323 322 322 322 322 322 322 323 323 323 323 323 323 323 322 322 321 320 320 320 320 320 319 319 319 318 318 318 318 318 318 319 318 318 318 317 317 316 314 313 310 304 299 296 295 294 294 294 293 293 294 295 296 297 298 298 297 295 296 299 299 297 295 294 297 298 298 298 298 297 297 297 297 298 297 298
330 330 331 331 329 328 327 326 324 323 323 323 322 322 323 323 323 323 324 323 323 324 323 322 322 322 321 321 321 320 321 320 319 319 320 319 319 320 320 320 319 318 318 318 317 317 316 313 311 307 302 297 295 295 294 294 293 293 293 293 296 298 297 296 298 298 296 295 297 299 297 294 294 295 295 296 298 297 296 295 296 296 296 296 297
330 330 331 330 330 329 328 327 325 324 323 323 323 322 323 323 323 324 324 324 324 324 323 322 322 322 321 322 321 321 321 321 321 320 321 320 321 322 322 320 319 319 318 317 316 316 314 311 308 304 299 296 295 294 294 294 293 293 293 293 295 298 297 295 297 298 297 295 295 298 296 294 294 293 292 295 297 296 295 293 294 296 295 295 295
331 330 331 331 331 330 328 327 326 325 323 323 323 323 322 323 323 323 324 324 324 324 323 323 323 322 322 322 322 322 322 321 322 322 322 322 321 322 321 320 319 319 317 317 316 315 312 309 306 301 298 296 295 294 293 293 293 293 292 292 294 295 295 295 296 297 297 295 293 296 296 294 294 291 289 293 294 293 292 290 293 295 294 295 295
330 330 330 331 331 330 329 328 327 326 324 323 323 323 323 323 323 323 323 324 324 324 324 323 323 323 322 322 323 323 323 322 322 323 323 322 321 321 320 320 319 318 317 317 315 314 311 307 303 300 297 295 294 294 293 293 293 293 293 293 293 293 294 295 295 295 296 294 292 295 295 294 294 292 289 290 291 290 289 289 291 293 293 294 294
330 329 329 331 331 330 329 328 327 326 324 323 323 324 323 323 324 323 323 324 324 323 324 324 323 322 322 323 323 324 325 324 324 325 324 322 321 321 320 320 319 318 317 316 315 313 310 306 302 299 297 295 294 293 293 293 293 293 294 294 294 294 294 294 294 295 295 292 292 295 295 295 295 291 288 289 289 288 288 288 290 291 292 292 293
330 329 329 331 331 330 330 328 326 325 324 324 323 323 324 323 323 324 324 324 324 324 324 324 323 323 323 324 324 325 326 325 325 326 324 321 320 320 320 319 319 318 317 316 314 312 308 304 301 298 296 294 294 294 293 292 292 293 293 294 293 294 294 293 293 294 294 292 293 295 295 295 295 290 288 289 288 287 288 287 288 288 290 291 292
329 329 330 331 330 330 329 327 326 325 324 324 323 323 324 323 323 324 324 325 325 324 324 324 324 324 324 324 325 325 325 325 326 326 323 321 320 320 320 319 319 318 316 314 312 310 306 302 300 298 296 295 295 295 295 294 293 292 292 293 292 292 294 293 292 294 294 292 293 295 295 296 295 291 288 288 287 287 287 287 287 287 288 289 289
330 330 331 331 330 330 329 326 326 325 324 324 323 323 324 324 324 324 325 325 325 325 325 325 324 325 324 325 326 326 326 326 326 325 323 321 320 319 319 319 319 318 316 313 310 307 304 301 299 297 297 296 294 294 295 295 294 293 292 292 292 292 293 292 292 294 294 293 294 295 295 296 296 292 289 289 288 287 287 287 287 286 286 287 287
330 330 330 331 330 329 328 327 325 324 324 324 323 323 324 324 325 324 325 325 325 325 325 324 324 324 324 325 326 326 326 327 326 324 323 322 321 319 319 319 319 317 314 312 309 305 302 300 298 296 296 295 293 293 293 294 294 293 292 292 292 292 292 292 292 293 294 294 295 294 294 296 296 292 291 291 289 287 287 287 286 286 286 286 286
330 330 330 330 331 329 328 327 326 325 324 323 324 323 324 325 325 325 325 325 325 325 325 324 324 324 325 325 326 326 327 327 326 324 323 322 320 319 319 319 318 316 313 311 308 303 300 299 297 295 294 293 293 293 293 293 293 292 292 293 292 292 292 291 292 292 293 294 295 294 294 296 295 293 293 292 289 288 287 286 286 286 287 287 287
331 331 330 330 330 329 328 328 326 325 324 324 324 324 324 325 325 325 325 325 325 325 324 325 324 324 324 324 325 327 328 327 327 325 323 321 320 319 319 318 317 315 312 310 307 303 300 298 297 295 294 293 293 293 293 293 293 292 292 293 292 292 292 291 292 291 291 293 294 293 294 295 295 294 294 291 289 288 287 286 286 287 286 288 289
330 331 331 331 331 330 330 329 328 326 325 325 325 324 325 325 325 325 325 325 325 325 325 325 325 324 325 324 324 327 328 328 327 326 322 320 320 319 318 318 316 314 311 308 305 302 299 298 297 295 293 293 293 293 293 293 293 293 293 292 292 292 291 291 292 291 291 293 293 291 292 293 295 295 293 290 288 288 287 286 286 287 287 288 290
330 331 332 331 331 331 330 330 329 327 326 325 325 325 325 324 325 325 325 325 325 325 325 325 325 324 324 324 325 327 328 328 326 324 321 320 319 318 318 317 315 313 310 307 303 300 298 298 296 294 293 293 293 293 293 293 293 293 292 292 292 292 291 292 292 290 291 292 291 289 289 292 294 294 291 288 288 287 287 287 287 287 287 288 290
330 331 331 331 330 331 331 330 330 329 328 327 326 326 325 325 325 325 325 325 325 325 325 325 325 325 324 326 327 328 327 325 322 321 321 320 319 318 318 317 314 312 309 306 302 300 298 297 295 294 293 293 293 293 293 293 293 293 292 292 292 291 291 292 291 291 291 291 290 289 288 290 293 292 288 287 287 287 287 287 287 287 287 287 290
331 331 331 331 331 331 331 331 331 330 329 329 328 328 327 326 326 325 326 325 324 325 325 325 325 324 325 328 329 328 326 322 321 321 320 319 318 318 318 315 313 311 308 305 302 299 297 296 295 294 293 293 293 293 293 293 293 292 292 292 292 291 292 291 291 291 291 291 291 290 289 289 290 289 287 287 287 287 287 287 287 287 287 287 288
331 330 330 331 331 330 331 332 331 330 330 330 329 329 329 328 327 326 326 326 325 325 325 325 326 326 328 330 330 328 325 323 322 321 319 318 318 318 317 314 312 310 308 304 301 299 297 295 295 294 293 293 293 293 293 293 293 292 292 292 292 292 292 292 292 293 292 292 292 292 291 289 289 289 288 287 287 287 287 287 287 287 288 287 286
330 330 330 332 331 331 331 331 331 330 331 330 330 330 329 329 328 327 327 327 326 326 326 326 328 329 330 331 330 328 325 323 321 319 318 319 318 317 315 313 311 310 307 304 300 298 296 295 295 294 293 293 293 293 293 293 292 292 292 292 292 292 292 294 295 295 294 293 293 294 293 291 290 289 288 287 287 287 287 287 287 287 287 287 286
329 330 330 330 331 330 330 331 331 331 331 331 330 330 329 329 329 328 328 327 327 327 327 327 329 330 331 331 329 326 323 321 319 319 318 318 318 316 314 312 311 309 306 303 300 298 296 295 294 294 293 293 293 293 293 293 292 292 292 292 292 292 294 296 296 296 295 294 295 295 294 292 291 289 287 287 287 287 287 287 287 287 287 287 286
328 329 329 329 329 329 330 330 330 330 330 330 329 329 328 328 328 327 327 327 327 326 327 327 330 331 331 330 327 324 322 320 319 319 319 318 317 315 313 312 311 308 305 302 299 297 296 294 294 294 294 293 293 293 293 292 292 292 292 292 291 292 296 296 295 295 295 295 295 295 294 293 290 288 287 287 287 287 287 287 287 287 287 287 286
328 328 329 329 329 329 328 329 329 328 328 328 327 327 327 327 327 327 326 327 327 327 327 329 330 331 330 328 325 322 320 319 319 319 318 317 315 314 313 311 310 307 304 301 298 297 295 294 294 294 294 293 293 293 293 292 292 291 291 291 291 293 295 295 293 294 295 295 295 294 293 292 289 288 287 287 287 287 287 287 287 287 287 287 286
328 328 328 328 328 327 327 328 328 327 327 327 326 326 326 326 326 327 327 327 327 327 328 330 330 330 328 326 323 321 320 319 319 318 317 316 314 313 312 311 309 306 303 300 298 296 295 294 294 294 294 294 293 293 293 292 292 291 291 291 291 292 293 292 291 294 295 294 294 294 292 290 289 288 288 287 287 287 286 286 286 287 287 287 287
327 327 327 327 327 326 327 327 327 327 327 326 326 326 326 327 327 327 327 327 327 327 328 330 330 329 327 325 322 320 320 319 318 317 316 315 314 313 312 310 307 305 302 299 297 296 295 294 294 293 294 294 293 293 293 292 292 291 291 291 291 291 291 290 290 293 295 294 294 293 291 289 288 288 288 287 287 286 286 286 286 286 286 287 287
326 327 327 327 327 327 327 328 327 327 327 326 326 327 326 327 327 327 327 327 327 328 329 330 329 327 326 323 321 320 319 319 317 316 315 315 313 313 312 309 306 304 302 299 297 296 295 294 294 293 293 293 293 293 293 292 292 291 291 291 291 290 290 290 289 291 294 294 293 292 290 289 288 288 288 287 287 286 286 286 286 286 286 287 287
326 326 326 327 327 327 327 327 327 327 327 327 327 327 326 327 327 327 327 326 327 328 329 329 328 326 324 322 320 319 319 318 316 315 315 314 313 313 311 308 305 303 301 299 297 296 295 294 294 293 293 293 293 293 293 292 292 291 291 291 291 290 290 290 289 290 292 292 291 290 289 288 288 288 288 287 287 287 287 287 286 286 287 287 287
326 325 326 327 327 326 326 327 327 327 327 328 328 327 327 328 328 328 328 327 327 329 329 327 326 324 322 321 320 319 318 317 316 315 315 314 313 313 310 307 303 302 302 300 298 296 295 294 294 294 293 293 293 293 293 292 292 292 291 291 291 290 290 290 290 289 290 290 289 289 289 288 288 288 288 288 288 288 287 287 287 287 287 287 287
326 325 326 326 326 326 326 326 326 328 328 329 329 328 329 330 330 330 329 328 328 328 327 325 324 323 321 320 319 318 317 316 315 315 314 314 313 312 310 306 303 302 302 300 297 295 294 294 294 294 293 293 293 293 293 292 292 291 291 291 291 290 290 290 290 289 289 289 289 289 288 288 288 288 289 289 289 288 288 288 287 287 287 288 288
326 326 327 327 327 327 327 327 328 329 330 329 329 329 328 329 330 330 329 329 328 327 325 324 323 321 320 319 319 318 316 315 315 314 314 313 313 312 309 305 304 303 301 298 295 294 294 294 294 294 294 294 294 293 292 292 292 292 291 291 291 290 290 290 290 289 289 289 289 289 288 289 289 289 289 289 289 289 289 289 288 288 288 288 288
330 330 329 329 329 329 329 330 330 329 329 327 326 325 325 327 329 329 328 327 326 325 324 323 321 320 320 319 317 316 316 315 315 314 314 313 313 311 309 306 304 303 300 297 295 295 294 294 294 294 295 295 295 295 293 293 292 292 291 291 291 290 290 290 290 290 290 289 289 289 289 289 290 289 289 289 290 290 289 289 289 288 288 288 288
332 331 329 330 331 331 331 330 327 325 324 323 321 321 323 326 327 327 326 326 325 324 323 321 320 319 319 317 316 315 315 315 314 314 313 313 312 311 309 306 304 303 300 297 296 295 295 295 295 296 297 297 296 296 295 294 293 292 292 292 291 291 291 290 290 290 290 290 289 289 289 290 290 290 290 290 290 290 289 289 289 288 288 288 288
333 331 329 330 332 331 329 327 322 320 320 320 319 321 323 325 326 326 325 324 323 323 322 321 320 318 317 316 315 315 315 315 314 313 313 312 312 311 309 307 305 303 300 298 297 297 297 297 297 298 298 298 297 297 296 295 295 294 293 292 292 292 292 291 290 290 290 289 289 289 290 291 291 291 291 291 291 290 289 289 289 288 288 288 288
334 332 329 332 333 330 326 322 319 318 319 320 321 322 322 323 324 324 323 322 322 321 320 318 317 316 315 315 315 315 315 315 314 313 313 312 312 312 310 308 306 304 302 299 298 298 298 298 298 298 298 298 297 297 296 296 296 295 293 292 292 292 291 290 290 290 289 289 289 289 290 292 292 292 291 290 290 289 288 288 288 288 288 288 288
335 333 331 332 332 330 325 320 317 319 321 322 322 322 321 321 322 322 322 321 320 319 317 316 315 315 315 315 315 314 315 314 314 313 313 312 312 312 311 309 306 304 303 301 299 298 298 298 298 298 298 298 297 297 296 296 297 295 293 291 291 291 290 290 290 289 289 289 289 290 291 293 293 292 291 290 289 289 288 288 288 289 289 288 287
334 332 330 331 332 330 327 321 318 319 323 324 324 322 320 319 319 320 320 317 315 315 315 314 315 315 314 314 314 314 314 314 314 313 312 312 312 312 311 309 307 305 304 302 300 299 299 298 298 298 298 298 298 298 297 297 297 296 294 292 291 290 290 290 290 290 290 290 289 290 292 293 292 291 290 290 289 288 288 288 288 289 289 288 288
333 330 328 329 330 329 328 325 322 321 323 325 324 322 319 318 317 317 316 313 312 314 314 313 314 313 313 313 313 313 313 313 313 313 313 313 313 312 311 309 307 305 304 303 301 299 298 298 297 297 297 297 297 297 296 296 295 295 294 292 291 291 291 290 290 290 290 289 289 290 292 293 292 291 290 289 289 288 288 288 288 289 289 288 288
Wind_Speed
13 13 12 10 10 9 8 8 8 10 9 8 8 8 7 8 8 7 7 7 7 7 7 10 11 9 9 11 13 12 13 14 14 17 18 16 16 17 18 20 19 18 19 17 15 16 16 17 18 17 17 18 21 21 21 21 21 22 20 17 17 14 16 18 20 16 15 17 13 13 9 4 8 10 4 6 7 10 14 12 12 15 16 15 14
14 13 12 10 10 10 8 8 8 9 9 8 9 9 8 8 8 7 8 7 8 7 5 7 10 10 10 8 8 10 12 12 14 15 14 12 12 14 14 15 16 17 20 18 16 15 15 17 18 19 18 17 20 23 22 20 21 22 20 18 17 14 14 17 20 17 17 20 16 17 12 3 8 12 7 6 8 13 14 13 15 14 14 17 15
15 13 11 10 12 13 10 9 8 9 10 9 8 8 8 7 7 8 8 7 8 9 6 6 6 9 13 10 8 11 13 15 16 14 13 12 13 15 15 13 14 16 17 16 15 16 16 17 18 18 19 18 19 22 23 20 20 23 20 18 18 15 13 14 18 17 17 20 17 17 16 10 12 14 11 10 9 14 14 14 17 13 14 16 12
15 13 11 11 13 13 11 9 9 10 11 10 9 9 8 8 8 9 8 6 6 8 9 9 7 9 12 12 10 12 13 15 15 12 14 15 14 14 13 12 14 15 15 15 14 15 17 17 17 16 18 21 20 20 24 21 19 23 21 17 18 18 15 13 14 14 15 19 19 16 14 13 15 19 20 15 11 13 14 14 15 14 16 16 14
16 14 12 12 13 12 10 10 10 11 11 10 10 10 10 9 10 10 9 8 8 9 10 11 11 9 11 12 11 11 12 11 10 11 13 13 13 13 12 12 13 13 14 13 13 14 15 17 18 18 17 20 20 19 24 23 18 22 23 18 16 17 16 14 13 11 12 14 16 13 12 12 16 21 22 18 14 13 13 13 13 14 17 17 15
16 15 14 14 14 12 10 10 11 11 11 10 10 12 12 11 11 10 10 11 10 10 10 11 10 8 9 11 10 11 14 12 11 12 12 11 12 13 12 11 9 9 11 13 14 16 14 16 19 19 16 15 18 20 22 23 19 20 22 19 16 15 14 14 14 11 9 10 11 9 9 11 15 19 19 20 19 16 13 13 13 15 17 16 16
16 15 15 16 15 13 12 11 12 13 12 12 13 13 13 11 12 11 10 11 11 11 11 11 11 9 10 10 9 11 12 12 11 11 10 10 11 11 10 9 8 8 12 12 14 17 15 14 19 20 16 13 15 19 20 20 19 18 20 20 17 15 14 14 15 13 10 11 10 8 8 9 11 14 16 19 22 21 17 14 13 16 16 16 15
17 15 15 17 16 14 14 13 14 15 14 15 15 14 14 13 12 11 11 13 12 12 11 11 12 12 12 12 11 11 12 12 11 10 9 10 9 9 9 9 9 11 13 11 12 18 18 14 17 19 18 16 15 19 19 17 16 17 18 19 17 16 15 14 14 13 13 13 12 10 11 11 9 10 12 14 18 23 23 18 17 17 15 14 16
17 16 16 18 17 16 16 15 15 16 15 16 15 14 15 13 12 12 12 13 11 11 12 11 11 12 13 13 12 12 13 12 10 10 10 9 8 7 7 8 10 11 12 12 13 17 18 16 17 19 19 18 18 20 20 15 13 16 18 17 17 15 14 14 14 13 13 13 12 12 13 13 12 11 12 13 14 19 23 24 25 23 19 17 18
17 17 17 18 17 18 19 17 17 18 17 17 15 14 15 13 12 12 12 12 11 11 12 11 12 12 12 13 11 10 10 8 8 9 9 7 7 5 5 7 8 9 12 13 14 16 18 19 19 19 18 19 20 20 19 15 11 14 16 15 15 14 13 14 14 14 14 13 11 12 13 14 15 14 14 15 14 15 18 22 24 24 24 24 22
18 18 18 18 17 18 20 19 18 19 18 16 15 15 15 13 13 12 12 12 10 11 11 11 11 11 11 12 10 9 9 8 8 8 7 6 5 4 5 6 6 9 11 13 15 17 18 19 19 18 18 20 21 19 18 15 9 12 15 13 14 14 13 14 14 14 14 14 11 11 12 12 14 14 14 14 15 15 17 19 20 20 22 23 23
19 21 20 20 18 18 20 20 19 19 18 16 16 15 14 13 13 12 12 12 11 11 11 10 10 10 10 9 8 8 9 9 8 7 7 5 4 4 5 4 5 8 9 10 13 17 19 19 18 18 19 21 21 18 17 14 10 11 13 12 13 13 12 13 15 14 15 15 13 12 11 11 13 13 13 13 14 15 16 18 19 20 21 22 22
20 21 22 22 21 20 22 21 20 20 18 17 17 16 14 14 13 12 12 11 11 11 10 9 10 9 9 9 7 6 8 8 6 6 5 3 3 3 2 2 5 7 8 9 12 17 19 19 19 19 20 22 21 17 16 14 11 11 12 12 12 14 14 13 13 14 14 15 14 13 11 10 14 12 11 13 13 14 16 17 19 20 21 22 21
22 23 23 23 22 22 24 23 21 21 19 18 18 15 15 15 13 12 12 11 11 11 10 9 9 10 8 8 8 7 6 7 5 4 5 3 2 2 2 4 5 6 8 11 13 16 19 19 19 19 20 21 20 17 15 14 13 11 12 11 10 13 15 14 13 14 14 14 14 13 11 10 15 13 11 14 14 14 16 17 20 21 21 21 20
22 24 24 23 23 22 23 22 21 21 20 19 18 16 15 15 14 13 12 11 12 12 11 10 8 10 8 4 5 5 5 6 6 4 5 4 2 1 4 7 6 4 7 11 13 14 16 17 18 18 20 20 18 16 15 14 13 12 12 11 10 11 12 13 15 15 14 13 12 14 13 11 14 14 12 15 14 15 16 17 20 23 23 22 20
22 24 24 24 23 22 21 22 21 21 21 19 18 17 16 15 15 15 13 12 13 12 12 12 9 9 11 8 6 6 4 5 5 6 5 4 3 3 3 7 6 5 9 12 12 13 13 14 16 18 20 19 16 14 14 14 13 11 11 12 12 12 10 12 15 14 15 14 12 13 14 13 15 14 13 14 14 15 16 16 18 20 23 25 23
23 24 25 24 24 22 21 22 22 22 22 20 19 18 17 16 15 15 14 12 13 12 11 12 10 9 10 11 11 10 8 7 6 6 6 4 3 3 3 5 6 8 12 13 13 14 13 14 16 18 19 18 15 13 12 12 12 10 11 12 12 12 11 11 12 13 15 15 13 12 14 15 16 15 13 14 14 15 16 17 17 18 19 23 24
25 24 25 25 24 23 22 21 22 22 22 22 20 18 18 17 15 16 15 13 13 13 10 10 10 8 9 9 10 9 8 6 4 3 5 4 3 4 4 5 7 10 11 13 14 14 14 14 16 18 18 16 14 13 12 11 10 11 11 12 11 11 11 11 11 12 14 14 13 11 14 16 16 15 15 14 14 15 17 17 17 17 18 20 22
27 23 25 25 23 23 22 21 21 22 22 22 20 19 18 18 16 16 15 13 13 13 11 11 10 9 8 8 8 8 7 6 4 4 6 4 2 5 7 6 8 10 10 12 12 12 12 13 14 16 17 15 13 12 11 10 11 12 12 11 11 10 10 11 12 11 12 13 13 11 14 17 16 17 17 15 15 15 17 19 18 17 19 19 20
27 24 24 25 24 23 22 21 21 21 21 21 21 20 17 17 17 16 16 15 15 13 12 12 11 9 7 6 6 7 7 6 5 6 5 3 4 8 8 8 9 10 10 10 10 9 10 12 13 14 14 13 12 11 11 10 11 12 12 12 11 10 10 12 11 11 11 14 14 12 14 16 16 19 20 17 16 17 19 20 18 18 19 19 20
25 23 23 25 25 23 22 21 21 21 21 21 22 20 17 17 17 16 17 18 15 14 14 13 12 11 9 8 7 6 6 6 6 6 4 4 7 9 9 11 10 9 9 9 8 9 10 11 13 13 13 12 11 10 10 10 10 11 11 12 12 11 11 12 11 11 11 14 15 13 14 16 16 19 21 19 18 19 20 20 18 18 19 19 20
24 22 23 25 25 23 22 21 21 21 21 21 22 20 19 19 19 17 18 18 16 14 14 14 13 12 11 11 10 8 7 7 7 7 5 5 7 9 10 11 10 8 8 8 8 9 10 12 12 13 12 11 10 10 10 10 10 10 10 11 11 12 12 13 12 12 12 14 15 14 15 16 16 20 22 20 20 20 20 20 19 19 20 20 20
23 22 23 26 26 24 23 21 22 22 22 22 22 21 21 20 18 19 19 17 15 14 14 15 14 13 12 12 11 9 9 8 8 8 8 7 8 9 10 10 9 7 7 7 7 9 11 12 12 12 11 10 9 9 10 10 10 10 10 10 11 12 12 13 13 13 14 15 15 14 15 15 16 20 22 20 20 20 20 21 21 21 21 21 21
23 21 23 26 26 25 23 21 22 23 22 23 24 21 20 20 18 20 20 17 16 16 16 15 14 13 13 13 11 11 10 8 8 9 10 9 9 9 10 9 8 7 6 6 7 10 11 12 11 12 11 8 7 7 9 10 10 10 11 11 11 12 12 13 14 13 14 16 15 14 15 15 16 21 22 21 21 21 22 23 24 24 23 23 23
22 22 23 24 24 24 22 19 21 24 22 23 25 22 20 20 20 20 20 19 18 17 17 15 14 14 13 12 12 12 10 9 10 11 12 11 11 10 9 7 7 6 5 5 7 10 11 11 10 9 8 7 6 6 6 8 9 10 11 11 12 12 12 13 14 13 13 15 15 14 15 14 16 21 23 23 24 24 24 25 26 26 25 25 25
21 23 23 23 24 23 21 19 20 23 23 23 23 21 20 21 21 20 20 20 19 18 17 15 15 15 13 12 13 12 10 10 13 14 13 14 13 10 9 7 6 6 5 5 6 7 6 7 8 8 6 5 6 7 7 7 7 8 10 11 12 12 12 12 13 12 13 14 14 15 15 13 17 23 23 23 26 26 26 27 27 27 26 26 24
19 23 23 23 24 22 21 21 19 21 24 24 21 20 20 21 21 20 20 20 19 19 17 16 15 14 13 12 12 11 12 13 15 16 15 14 13 11 9 7 5 5 5 5 7 6 5 6 8 8 6 6 6 7 8 8 8 9 10 11 11 11 12 12 12 12 13 14 13 14 14 13 18 22 22 24 26 27 27 27 27 27 26 25 24
17 21 23 24 25 22 21 22 19 18 22 24 22 20 21 21 21 21 20 20 20 20 18 17 16 14 13 12 11 12 14 15 17 17 15 13 12 11 9 6 5 5 5 6 8 8 6 7 9 7 6 6 6 7 8 8 8 9 10 10 11 11 11 11 12 13 13 12 13 14 13 14 17 19 21 25 26 26 28 28 27 27 25 24 24
17 19 22 23 23 22 21 22 20 18 19 22 22 21 21 21 22 22 21 20 20 20 19 18 17 16 14 12 12 15 16 16 18 18 15 12 12 11 8 5 5 5 5 7 7 7 7 8 9 7 6 6 7 8 8 8 8 9 10 10 10 10 10 11 12 13 12 11 13 14 13 14 14 15 20 25 25 25 26 26 27 27 25 22 23
16 19 20 20 21 21 21 21 22 20 20 20 21 21 21 21 21 22 22 21 20 20 19 18 17 16 14 14 16 17 17 16 18 17 14 12 12 10 7 6 6 5 5 6 6 6 7 8 9 8 6 6 7 7 8 8 8 9 10 10 10 10 10 10 11 12 12 12 13 14 15 13 12 15 20 23 24 24 24 23 24 25 23 21 23
15 17 18 19 20 20 21 21 22 21 21 21 20 20 20 20 20 21 21 21 21 20 20 19 17 15 14 16 18 17 16 15 14 13 12 12 11 10 8 6 6 5 5 6 6 5 6 8 9 7 6 6 7 7 8 8 9 9 10 10 10 10 9 9 11 12 13 13 13 15 18 15 12 17 22 23 23 24 23 23 23 22 20 19 20
14 15 17 18 18 19 21 21 21 21 21 20 20 19 19 20 20 20 20 19 19 20 20 19 17 15 16 18 18 19 18 15 12 12 13 12 11 10 8 7 6 5 6 6 6 5 6 8 9 6 6 6 7 7 8 8 8 9 10 10 10 10 9 9 11 13 14 14 14 16 19 18 16 19 23 24 25 25 24 24 23 21 20 19 17
14 14 15 18 18 18 20 20 20 20 20 20 20 19 19 19 19 20 19 19 19 19 19 18 17 16 17 20 22 22 20 16 13 14 13 12 11 10 8 7 6 5 6 6 6 5 6 8 8 6 5 6 7 7 7 8 8 9 9 10 10 9 9 10 12 13 15 16 15 15 19 22 22 22 24 26 27 27 26 25 24 22 21 20 18
11 13 14 16 17 16 17 19 19 19 19 19 19 19 18 18 18 18 18 19 19 19 19 18 16 17 21 24 24 23 19 15 15 15 13 12 11 10 8 7 6 6 7 6 5 6 7 8 8 6 6 6 6 7 7 7 8 9 9 10 10 9 10 12 12 14 16 17 15 15 19 23 25 24 26 28 28 28 27 26 25 24 23 22 21
11 13 13 14 17 17 16 18 18 17 17 17 18 18 18 17 17 17 17 18 18 18 19 18 17 20 25 25 23 20 18 16 16 14 13 13 11 9 8 7 6 7 7 6 6 6 6 7 7 7 6 6 7 7 7 8 8 8 9 10 10 10 11 13 12 14 15 16 14 14 18 24 26 26 27 28 28 28 27 27 26 24 23 22 23
13 15 15 15 17 17 17 19 18 17 17 17 17 18 17 17 17 17 17 18 18 18 18 18 19 24 27 25 22 20 18 17 15 14 14 13 11 9 8 7 7 7 7 7 6 7 7 6 6 7 6 6 7 7 7 8 8 8 9 10 10 10 9 9 12 13 14 14 13 14 19 23 25 26 26 26 27 27 26 26 26 24 23 23 24
11 13 14 15 15 15 18 20 18 17 17 17 16 17 16 16 16 16 16 17 17 18 18 19 23 26 27 25 22 21 19 17 15 15 15 12 11 9 8 7 7 8 7 7 6 7 7 6 6 7 6 6 6 7 7 7 8 8 8 9 9 8 5 8 11 10 11 13 13 15 19 22 23 24 24 25 25 26 25 25 25 23 23 24 25
11 11 12 14 14 14 16 18 17 16 16 15 15 15 15 14 14 15 15 16 17 18 19 21 25 27 26 24 22 21 19 16 16 16 14 12 11 10 8 7 8 8 7 7 7 8 7 6 6 8 8 6 5 6 7 7 7 7 8 8 8 7 5 7 8 6 8 11 13 16 19 20 21 22 23 24 24 25 24 23 22 23 24 25 26
11 12 14 15 14 13 15 16 15 15 15 14 14 14 15 15 15 16 16 17 19 19 20 24 27 28 26 25 23 22 19 17 17 15 13 11 11 9 8 8 8 8 7 8 8 9 8 6 6 8 9 7 6 6 7 7 6 7 7 7 7 7 6 7 7 5 5 9 13 17 18 19 20 21 22 23 23 23 21 20 21 24 25 25 27
11 12 12 13 13 12 13 14 14 15 14 14 14 14 15 16 16 16 17 18 19 19 22 27 28 26 25 25 24 22 19 18 17 14 12 12 11 9 8 8 8 8 8 9 9 9 9 7 6 7 9 9 6 6 7 7 6 7 7 7 7 8 7 8 8 6 5 7 12 16 18 19 19 20 21 21 20 19 19 21 23 24 24 26 28
12 14 13 13 14 13 13 14 14 15 14 14 14 14 16 17 17 18 18 18 19 20 24 26 26 25 26 26 24 22 20 19 16 13 12 12 10 9 9 8 8 9 9 9 9 10 10 9 7 8 9 9 8 6 7 7 7 6 7 7 7 7 8 8 9 8 6 7 10 13 16 18 19 19 19 19 18 20 22 23 24 23 23 25 27
10 14 14 14 14 14 14 14 14 15 15 14 15 16 17 17 17 18 17 17 19 22 24 25 25 25 26 25 24 22 21 19 16 14 13 12 10 10 9 8 8 10 10 10 11 11 11 10 10 9 9 9 8 7 7 7 7 7 7 7 7 8 8 8 9 9 8 9 11 13 15 16 16 17 18 19 21 24 25 24 23 23 23 24 26
6 10 13 14 13 12 14 13 13 14 14 14 15 16 15 15 15 14 14 16 20 22 24 25 25 25 25 25 24 22 21 18 15 14 13 11 11 10 9 9 10 11 12 12 12 12 13 12 11 11 11 10 8 8 8 7 7 7 7 7 7 7 8 8 9 10 11 11 12 13 14 15 15 16 19 21 24 25 25 24 24 24 23 23 24
8 9 11 13 11 10 12 13 13 13 12 12 14 15 14 14 14 14 16 19 22 23 24 24 24 24 25 25 23 21 19 17 14 14 13 12 12 11 10 10 11 12 12 13 13 13 14 14 12 12 13 12 9 7 8 8 8 7 7 8 8 8 9 9 10 11 11 12 12 13 14 14 15 18 21 22 24 24 24 24 24 23 23 22 23
8 10 12 12 11 12 14 14 14 14 13 13 14 13 13 14 15 17 20 22 23 23 23 24 24 25 25 23 21 20 18 16 14 14 13 13 12 11 11 11 12 13 13 14 14 14 14 14 14 13 13 13 12 9 7 8 8 8 8 8 9 9 9 9 10 10 11 12 13 14 15 14 16 19 21 21 21 22 22 22 21 22 21 20 22
8 11 12 11 12 14 15 14 14 14 14 12 11 10 12 15 18 19 20 20 22 22 23 25 26 25 24 21 19 19 18 16 15 15 14 14 13 12 12 13 13 13 14 14 15 15 14 14 14 14 13 14 15 14 11 9 9 9 9 9 9 9 9 10 11 11 12 13 14 14 14 14 16 19 20 19 19 20 20 20 20 21 20 19 21
9 11 11 12 14 15 14 14 14 13 11 10 9 10 12 14 17 18 18 19 21 23 24 25 24 23 21 19 18 18 17 16 16 16 16 16 15 13 13 14 14 15 16 15 15 16 15 15 15 14 14 15 15 16 16 13 11 10 10 10 11 12 12 13 13 13 13 14 14 14 13 13 16 17 18 17 16 18 19 18 19 20 19 18 20
9 11 12 13 14 14 13 14 13 11 10 9 9 10 11 12 14 16 19 21 22 23 23 22 21 19 18 18 17 17 16 16 17 17 17 17 16 14 15 16 16 15 16 17 16 17 17 16 16 16 16 17 17 18 18 16 13 10 9 11 13 14 15 15 14 14 14 14 14 14 12 12 13 15 16 15 15 18 19 18 18 18 18 19 20
9 11 12 13 14 14 14 13 12 10 10 10 9 10 10 12 14 17 20 20 20 20 20 19 18 18 17 17 17 17 17 17 17 18 18 18 17 16 17 17 17 16 17 17 17 18 18 18 17 17 18 18 18 19 17 16 14 11 10 12 14 14 15 15 14 14 13 13 13 13 11 10 10 14 16 16 16 19 20 18 17 17 18 19 20
9 10 11 13 13 13 13 13 12 11 11 11 11 11 11 14 17 18 19 19 18 19 19 18 17 17 17 17 17 18 18 18 19 19 19 19 19 18 18 19 19 18 17 17 18 18 19 19 18 19 20 20 20 19 17 16 16 15 15 15 14 14 14 14 13 13 13 13 13 12 9 8 11 14 16 16 17 18 19 18 17 16 17 19 20
8 9 11 13 13 13 14 13 13 13 13 13 13 13 13 16 18 19 18 17 17 19 19 18 18 17 17 17 18 18 18 19 19 19 20 21 21 21 21 21 21 20 19 18 18 20 20 21 21 22 22 22 21 20 18 17 17 17 17 16 15 14 14 14 13 13 13 12 13 10 7 7 12 15 15 16 16 18 18 18 17 16 17 18 18
Wind_Direction
151 145 135 125 116 109 98 94 93 97 99 106 110 103 104 99 92 89 82 77 74 87 98 85 73 69 74 71 69 70 64 63 65 70 73 69 57 47 47 50 51 50 46 46 49 48 47 42 33 22 30 38 28 33 35 17 9 6 7 18 15 19 29 7 351 6 6 355 9 9 2 63 20 3 354 327 351 360 349 353 351 342 343 342 337
155 143 137 136 129 120 103 96 98 100 102 112 117 111 112 108 98 87 79 77 79 85 104 104 86 78 85 75 69 84 79 72 74 71 67 70 66 59 62 60 56 52 45 42 39 38 44 47 39 21 23 33 26 31 33 17 5 4 11 18 15 21 29 13 3 9 12 2 4 4 3 55 6 346 336 344 3 354 347 353 349 345 350 346 340
153 141 139 142 133 122 108 104 108 110 111 114 117 114 110 106 98 92 88 91 98 100 102 105 102 95 92 81 72 85 81 75 80 78 67 73 77 73 76 72 62 55 48 42 34 34 38 45 46 25 13 16 19 24 24 18 4 3 20 21 12 21 29 21 11 14 18 3 358 6 1 357 351 338 349 16 5 348 352 353 347 351 348 336 334
151 145 145 143 132 118 110 116 117 117 119 114 115 117 114 110 106 104 99 96 105 102 88 80 88 100 98 92 83 78 74 75 80 78 68 69 71 70 72 69 60 54 50 45 39 38 30 32 45 35 13 6 10 14 12 16 8 3 21 27 12 14 19 24 17 20 29 9 359 6 359 358 356 340 342 353 347 344 351 350 346 349 340 323 317
159 155 151 143 129 116 116 128 124 123 123 116 120 124 120 114 111 113 110 99 93 91 86 84 86 91 97 97 93 84 83 86 85 79 75 74 73 70 69 66 61 55 49 40 42 50 31 18 32 37 23 7 3 6 6 11 11 4 14 27 20 10 9 18 14 24 42 16 3 11 1 353 348 339 337 335 333 341 343 344 349 342 329 321 324
166 163 157 142 129 123 126 133 129 127 127 125 128 125 118 116 115 113 109 103 98 93 86 86 87 93 103 100 101 103 97 90 88 87 80 75 78 76 69 61 56 61 58 39 35 52 42 12 19 31 31 14 0 2 3 6 9 5 7 17 21 10 6 12 11 22 40 13 11 29 16 352 340 341 343 334 329 338 344 346 346 334 326 333 341
170 171 161 141 134 137 136 135 133 129 130 128 124 122 120 120 117 111 104 100 100 98 90 91 94 100 107 99 96 109 106 94 94 97 85 76 79 76 70 61 51 63 64 46 28 37 41 17 12 19 26 20 4 3 4 2 4 4 2 8 13 11 10 13 11 15 21 15 21 40 34 9 350 351 353 341 332 333 341 348 342 334 339 346 334
174 174 163 143 141 147 141 139 137 132 131 127 123 127 127 122 118 112 102 99 103 103 101 107 103 97 107 108 96 96 103 102 101 99 95 95 91 73 60 48 43 54 56 46 26 26 31 22 10 11 17 17 5 3 5 3 360 357 357 3 10 14 15 17 18 17 18 18 21 39 35 10 2 7 357 349 339 330 333 341 341 340 347 339 320
179 175 163 149 150 156 147 142 140 136 135 132 130 130 128 124 123 116 105 106 114 111 105 110 105 95 104 111 102 96 96 99 99 93 91 92 86 74 65 46 31 38 41 36 27 21 20 17 10 9 11 11 4 360 3 9 2 350 353 3 9 16 20 21 25 27 26 23 20 37 35 6 6 15 358 354 351 336 332 335 338 342 342 334 330
180 170 161 153 157 161 150 144 145 143 139 136 136 134 132 130 126 120 116 119 123 118 111 109 108 103 107 110 108 104 99 101 105 94 87 85 74 60 62 50 22 16 23 22 19 15 13 10 7 8 9 7 3 359 4 16 8 349 354 5 10 17 24 26 31 32 33 34 29 39 34 5 1 9 357 355 354 342 333 329 333 337 333 332 336
174 164 159 156 158 157 148 148 151 148 144 145 145 140 139 137 131 130 129 131 127 122 121 117 116 117 117 116 111 109 112 112 111 102 93 95 84 44 40 42 11 7 17 13 6 3 7 7 3 6 6 3 3 1 6 17 11 355 1 10 15 22 26 27 33 37 37 40 41 49 41 5 355 2 355 352 350 340 333 327 328 331 327 328 332
170 164 163 161 160 156 151 154 156 152 151 154 153 148 148 145 142 142 138 140 136 129 131 126 126 128 125 125 112 109 122 113 98 104 102 93 81 47 38 31 350 358 16 13 357 353 360 3 2 5 4 2 4 3 7 16 12 4 8 15 21 26 33 31 30 33 35 37 42 55 49 3 350 4 357 350 347 338 335 330 328 330 327 327 330
170 166 165 164 164 162 159 158 159 159 158 159 160 157 155 155 155 154 149 152 146 139 141 133 131 133 128 135 131 118 130 117 95 110 117 108 100 70 32 353 332 344 4 4 351 349 354 359 2 5 2 0 3 5 10 17 18 13 15 21 23 26 37 36 29 30 30 31 34 47 53 2 350 10 2 349 350 342 341 336 331 331 329 327 330
173 168 168 168 169 168 166 162 161 164 163 164 167 164 160 163 167 165 162 164 156 153 156 146 148 151 134 127 133 142 158 147 130 124 120 134 132 54 328 311 329 344 352 351 347 348 352 357 2 2 359 360 3 6 10 17 22 22 23 28 22 21 32 34 33 35 29 27 25 30 42 5 353 16 6 351 356 349 346 342 334 333 330 327 329
175 170 171 171 172 171 168 166 165 167 167 167 169 169 168 170 174 173 172 172 170 170 166 163 169 164 151 129 124 145 180 169 157 157 148 158 156 52 317 307 324 343 340 343 347 349 353 356 359 359 358 359 4 7 11 16 21 23 25 35 36 25 24 24 31 35 27 28 23 16 25 10 0 18 7 352 358 351 347 345 338 335 332 330 330
174 169 170 171 172 172 170 169 169 170 171 171 172 174 175 175 177 179 181 179 182 183 171 172 186 174 164 166 159 162 184 179 173 191 199 196 191 191 278 299 312 332 336 342 347 351 355 354 354 356 357 360 5 10 13 15 19 23 26 33 39 36 26 17 23 28 24 29 28 11 10 8 10 20 7 357 1 353 349 347 342 340 335 331 331
172 167 168 169 172 172 171 171 172 174 174 175 177 179 179 180 179 182 187 183 188 194 180 178 190 190 177 173 179 184 187 200 205 207 221 241 242 238 277 306 319 333 338 342 345 350 355 353 350 354 358 1 7 13 16 16 16 25 33 35 34 32 27 20 18 19 19 25 29 13 359 4 15 16 7 4 3 353 349 348 345 343 337 332 331
168 166 167 170 173 173 172 174 175 177 178 177 179 180 181 183 181 186 190 184 190 200 192 188 194 200 200 190 196 201 196 218 237 216 229 248 275 283 285 300 318 330 334 339 345 351 353 351 351 354 358 3 7 12 17 19 21 28 36 39 37 27 19 22 23 17 14 19 27 13 355 4 15 12 10 10 3 352 347 347 346 343 337 333 330
162 166 167 170 173 175 175 177 177 178 180 180 179 180 183 186 184 190 196 188 193 203 197 197 202 206 212 205 207 208 199 219 243 229 233 241 249 261 269 289 309 323 333 341 347 351 351 350 352 352 355 1 7 12 15 20 27 34 38 40 40 31 17 23 30 19 7 12 24 14 357 6 10 7 12 10 359 352 346 346 348 342 336 331 327
160 165 168 170 173 176 176 178 178 178 181 182 181 182 186 190 187 191 199 195 195 204 203 201 204 209 224 228 218 210 192 195 225 232 229 222 231 247 271 300 308 319 335 342 345 350 349 348 350 351 352 358 6 14 17 22 28 31 36 39 40 35 24 26 29 22 8 6 16 16 3 5 5 3 10 8 357 352 347 348 347 338 332 327 323
167 168 169 170 172 175 177 180 180 177 182 183 181 186 190 188 189 193 201 204 203 203 203 205 204 203 215 223 219 217 198 187 213 236 219 200 233 255 282 301 305 318 333 337 344 348 345 345 348 350 352 356 6 16 19 26 31 28 29 32 33 31 28 28 25 21 12 3 10 15 5 3 2 360 4 3 355 352 349 349 345 333 329 327 324
169 170 170 170 170 173 178 183 182 176 181 185 182 187 190 186 189 194 201 209 210 202 201 208 206 200 206 217 218 218 213 201 208 228 231 239 263 277 287 293 302 319 327 334 345 344 342 346 349 351 351 354 5 17 21 26 31 30 30 28 24 24 23 23 21 17 9 3 9 11 3 1 358 356 358 358 354 352 350 348 344 335 330 329 328
165 169 168 169 170 173 179 188 184 174 178 186 183 185 191 192 191 192 198 209 209 201 201 207 208 203 206 216 221 221 224 217 208 218 238 268 286 287 286 292 304 318 324 333 342 339 341 349 351 349 350 354 4 12 16 23 28 30 33 29 22 22 20 17 16 13 4 3 9 7 360 357 351 351 355 356 355 353 352 350 347 342 336 331 328
164 167 164 167 170 173 181 192 186 172 174 186 187 186 192 196 195 194 198 207 206 201 203 207 210 211 212 217 223 230 231 215 210 229 250 266 275 281 286 294 306 317 323 331 335 337 343 352 351 346 346 353 5 10 10 12 17 24 28 26 21 21 18 12 11 10 1 2 8 2 356 352 342 344 351 356 357 356 354 354 351 347 341 333 329
163 164 163 166 170 174 183 195 187 170 173 189 190 188 193 196 198 199 202 207 206 204 206 207 211 216 218 220 225 235 228 206 219 247 260 261 262 271 284 293 305 316 321 329 336 339 345 351 348 339 336 343 356 7 8 4 6 14 18 18 18 17 15 10 8 8 359 360 4 357 354 350 333 335 347 354 356 356 355 355 352 347 343 336 332
163 163 165 170 175 180 185 193 188 173 174 187 188 186 193 198 200 202 204 207 207 208 208 208 212 220 222 222 229 235 220 210 234 251 257 257 256 261 276 290 304 311 316 330 338 339 337 334 329 326 323 330 348 360 5 2 359 6 12 12 12 12 10 8 7 6 357 358 0 352 352 347 326 331 345 351 350 352 354 353 349 346 342 338 338
166 166 171 178 183 186 187 190 191 179 177 185 186 187 193 197 200 202 204 208 208 209 210 209 212 219 221 223 233 232 213 218 243 254 257 256 251 252 266 285 301 303 309 324 333 336 328 314 317 323 328 340 356 358 360 3 0 6 11 7 6 8 7 6 6 3 358 357 354 347 348 340 327 334 345 345 343 348 351 349 346 344 341 339 344
175 172 176 183 186 188 187 188 192 187 182 184 187 192 195 197 200 203 204 208 209 209 211 212 213 216 220 224 234 230 218 225 245 256 259 253 243 248 261 278 292 294 306 323 333 338 333 320 319 326 339 351 359 357 356 1 0 5 9 4 2 4 4 6 5 0 0 357 347 343 345 340 335 338 339 337 339 344 345 343 344 344 341 341 347
183 179 181 183 185 188 187 187 191 189 185 185 187 193 197 200 203 203 204 208 211 212 212 213 216 221 222 224 230 228 223 232 246 254 255 246 240 247 253 266 281 288 305 320 330 333 328 320 320 330 348 351 354 354 353 356 359 4 6 2 0 1 2 6 1 358 1 354 341 341 344 344 342 335 329 331 338 344 342 341 344 345 342 344 347
187 182 183 183 187 191 189 189 192 191 191 190 191 195 198 202 204 203 205 208 211 215 214 213 219 223 222 224 231 230 229 239 248 249 248 243 240 241 242 256 273 283 303 316 324 326 319 314 317 330 345 346 349 350 348 353 359 2 3 1 358 359 4 5 358 358 359 347 340 346 351 354 344 327 328 334 339 343 343 343 347 345 342 346 348
189 182 184 188 192 192 191 194 194 193 196 197 197 200 201 204 206 206 209 210 209 214 216 215 219 223 224 227 227 223 227 241 247 244 243 242 234 232 239 253 267 282 303 315 318 315 308 306 313 326 336 338 345 345 346 353 356 358 1 359 356 356 2 6 360 357 354 345 343 351 357 1 341 325 335 342 341 344 346 346 349 347 345 352 349
193 186 188 192 195 195 195 198 197 197 200 200 202 205 205 207 209 210 212 212 210 214 217 217 219 223 225 222 213 211 224 239 244 241 241 235 225 225 238 250 262 282 303 310 308 307 302 300 308 321 328 335 340 339 345 351 351 356 358 354 355 354 356 9 6 355 348 344 344 350 355 357 344 333 342 347 344 346 348 347 350 350 351 359 354
192 193 196 193 197 201 197 197 201 203 204 204 205 208 209 210 211 212 214 215 213 215 217 219 222 222 218 213 211 221 235 243 242 239 233 223 219 225 236 246 259 283 300 303 300 302 298 296 305 318 325 330 332 335 343 346 348 355 354 353 355 345 346 7 5 348 342 342 343 342 345 349 345 340 345 348 345 346 347 348 351 353 356 1 1
189 195 202 195 194 199 199 201 206 208 208 208 209 210 212 213 214 214 215 215 216 216 217 219 220 216 213 215 221 231 238 238 234 231 222 214 218 224 233 244 260 283 298 299 296 296 292 292 302 315 325 326 324 332 339 341 348 352 350 355 351 337 349 8 358 338 334 338 337 328 330 340 342 339 343 345 343 345 346 347 352 356 357 0 0
190 192 200 198 194 195 198 202 208 211 210 210 211 212 214 215 216 217 216 215 217 216 215 216 213 207 212 220 227 230 231 230 227 220 211 212 217 223 232 245 263 284 295 295 290 289 286 286 297 312 322 319 318 331 336 338 347 348 349 355 344 337 360 5 341 323 323 329 328 316 320 333 336 336 342 343 341 343 345 347 352 355 357 0 1
192 192 195 196 192 194 201 202 205 210 209 210 212 211 213 214 215 217 215 214 215 212 211 212 205 205 214 223 226 226 226 224 218 209 208 213 217 223 233 246 265 282 290 287 282 281 279 279 291 306 315 310 314 328 332 335 343 345 349 351 343 350 6 342 315 313 319 323 320 311 316 327 331 336 342 342 340 343 345 348 351 353 357 2 2
184 187 189 191 188 198 210 205 200 204 205 208 209 207 208 211 211 212 211 211 212 211 212 210 202 206 217 222 224 225 223 217 209 205 209 214 216 223 235 250 268 280 285 283 276 273 273 273 283 297 304 302 310 322 326 332 339 342 348 347 346 360 355 308 305 315 320 319 316 311 316 324 331 339 342 342 341 344 348 349 348 350 360 4 1
174 179 185 192 193 201 204 193 187 197 204 206 205 203 206 210 209 209 211 212 213 212 211 207 203 210 219 221 222 225 220 211 206 206 211 213 215 226 240 252 267 279 281 276 270 267 268 268 276 289 297 302 311 316 321 329 333 336 345 346 344 352 337 316 321 329 322 317 312 310 317 327 336 341 342 343 345 346 347 346 345 353 3 4 1
175 182 184 189 191 192 189 181 185 199 203 204 206 207 210 212 214 217 218 217 216 213 210 207 207 214 220 219 221 221 213 205 206 208 210 212 217 229 241 251 264 276 274 266 262 263 264 264 269 280 290 301 309 310 315 325 330 331 338 341 341 346 346 338 338 344 338 319 308 310 322 335 341 342 344 347 346 344 345 349 355 0 3 3 3
165 168 170 175 179 184 185 185 193 202 204 210 215 216 218 220 221 222 222 220 218 213 209 209 210 213 215 215 217 215 207 204 208 209 208 212 221 231 241 252 261 267 265 258 255 258 260 262 266 272 282 293 299 302 310 317 324 327 330 334 338 343 347 344 342 347 345 313 304 311 326 339 344 343 345 348 347 348 353 0 5 4 1 2 3
160 159 162 171 177 186 194 198 201 204 208 216 221 223 229 230 230 229 227 224 220 213 208 206 206 206 208 210 213 209 203 205 210 209 209 214 224 234 243 251 255 259 260 253 247 252 258 263 267 267 273 284 293 300 305 311 318 322 322 326 332 338 342 340 340 344 333 309 310 318 329 341 345 343 344 349 355 2 5 6 6 4 2 4 2
149 154 161 174 182 190 200 207 208 208 210 217 222 227 234 234 232 232 228 222 216 210 202 197 196 199 203 207 208 204 201 206 211 209 212 219 226 233 244 247 246 251 253 247 244 248 254 261 267 269 270 276 287 297 300 304 311 313 315 320 325 332 338 334 334 339 333 324 328 332 335 342 343 342 348 356 3 7 7 4 3 2 2 3 0
169 161 165 180 192 198 204 210 215 214 215 220 223 225 224 221 220 219 214 209 205 197 190 188 191 196 199 202 203 201 203 210 213 210 216 225 229 235 242 241 241 246 248 245 245 246 250 256 262 267 272 274 279 289 294 297 302 305 309 314 317 323 329 331 334 337 333 332 336 337 338 341 342 347 357 2 4 5 2 358 358 359 358 358 356
213 201 194 199 205 208 210 211 210 206 203 206 208 207 207 208 206 201 197 194 188 182 182 187 191 192 195 199 201 203 207 213 214 214 220 227 230 236 241 240 243 248 247 245 244 243 245 253 258 261 267 272 271 270 277 286 292 297 302 306 312 319 323 329 334 332 328 332 338 338 337 339 345 355 1 2 2 360 354 351 352 352 352 353 350
209 204 208 206 202 206 210 208 199 190 189 194 203 210 213 208 199 195 193 187 181 181 185 188 189 192 197 202 203 206 211 215 215 220 227 230 234 238 242 245 249 249 246 244 243 242 242 247 254 258 262 270 276 273 270 274 281 292 302 304 306 311 315 321 327 327 328 335 341 340 337 338 350 359 359 357 357 353 348 347 347 347 349 350 346
201 200 199 190 190 199 204 202 195 191 194 204 218 227 222 209 201 199 195 188 185 188 188 189 192 197 202 206 207 209 213 216 218 225 231 233 238 241 246 252 252 247 246 244 241 242 242 242 247 252 253 260 271 278 282 282 278 283 293 296 297 304 310 317 325 330 335 340 342 339 335 341 354 356 352 351 351 346 344 344 342 345 352 351 344
202 202 190 181 188 194 197 199 198 198 205 219 232 234 223 214 212 205 193 186 190 193 191 192 198 203 205 208 211 214 218 220 223 229 232 234 239 244 250 256 254 246 244 243 237 237 239 238 239 244 246 247 255 266 277 284 283 284 295 302 307 314 318 321 327 333 335 336 337 333 334 348 355 347 343 346 343 339 342 342 339 346 354 349 343
205 208 189 180 189 195 198 202 201 202 214 224 233 234 222 213 209 197 184 185 193 196 196 198 204 207 209 212 217 221 226 228 229 232 235 237 243 249 254 259 260 251 247 245 238 234 236 237 235 237 241 243 245 253 265 276 284 292 301 303 304 309 313 315 320 324 325 328 328 327 337 353 347 332 332 337 335 337 343 343 341 348 351 346 344
206 213 190 180 189 197 203 209 206 206 211 214 226 234 216 199 192 184 184 192 197 197 201 206 209 211 214 218 224 228 232 234 234 234 236 240 247 255 259 262 261 255 249 248 244 237 237 238 235 235 240 244 245 251 260 268 275 282 287 286 288 294 298 300 305 309 313 320 322 325 342 352 329 316 325 332 334 340 345 346 348 351 348 344 346
203 211 193 186 194 202 209 213 210 206 202 201 217 229 211 194 190 189 197 205 202 199 204 209 211 215 220 225 230 233 233 235 236 234 235 241 249 254 258 260 261 258 254 251 247 242 242 241 236 235 241 246 250 256 260 263 266 271 276 278 281 284 286 290 297 304 309 317 321 326 341 336 311 310 322 329 334 339 342 346 354 352 344 343 344
204 207 194 190 196 207 214 214 211 210 202 198 214 227 212 198 198 204 212 215 206 204 210 213 215 222 227 229 233 235 233 234 237 237 239 245 250 252 253 256 258 259 257 252 248 246 245 245 245 244 246 249 252 256 258 260 262 266 270 275 279 281 284 290 296 300 304 310 315 323 332 311 301 310 321 326 330 336 340 347 354 348 340 341 342